EN

Hourly Weather Abeokuta

Today, 14 June, Monday

Time Temperature Precipitation Wind Pressure Humidity
00:00 +26°C° 0 mm 1 mps 752 mmHg 90%
01:00 +26°C° 0 mm 1 mps 752 mmHg 91%
02:00 +26°C° 0 mm 1 mps 752 mmHg 92%
03:00 +26°C° 0 mm 1 mps 751 mmHg 94%
04:00 +26°C° 0 mm 1 mps 752 mmHg 93%
05:00 +26°C° 0 mm 1 mps 752 mmHg 92%
06:00 +26°C° 0 mm 1 mps 752 mmHg 92%
07:00 +28°C° 0 mm 1 mps 753 mmHg 81%
08:00 +30°C° 0 mm 2 mps 753 mmHg 70%
09:00 +33°C° 0 mm 3 mps 753 mmHg 59%
10:00 +35°C° 0 mm 3 mps 753 mmHg 54%
11:00 +36°C° 0 mm 3 mps 752 mmHg 49%
12:00 +37°C° 0 mm 2 mps 752 mmHg 44%
13:00 +36°C° 0 mm 2 mps 751 mmHg 48%
14:00 +35°C° 0 mm 2 mps 751 mmHg 51%
15:00 +34°C° 0 mm 2 mps 750 mmHg 55%
16:00 +31°C° 0.1 mm 2 mps 751 mmHg 62%
17:00 +30°C° 0.1 mm 2 mps 751 mmHg 69%
18:00 +28°C° 0.1 mm 2 mps 751 mmHg 77%
19:00 +28°C° 0.1 mm 2 mps 752 mmHg 80%
20:00 +27°C° 0.1 mm 1 mps 752 mmHg 84%
21:00 +27°C° 0.1 mm 1 mps 752 mmHg 87%
22:00 +26°C° 0.1 mm 1 mps 752 mmHg 89%
23:00 +26°C° 0.1 mm 1 mps 752 mmHg 91%

Tomorrow, 15 June, Tuesday

Time Temperature Precipitation Wind Pressure Humidity
00:00 +26°C° 0.1 mm 1 mps 752 mmHg 93%
01:00 +26°C° 0 mm 1 mps 751 mmHg 94%
02:00 +26°C° 0 mm 1 mps 751 mmHg 95%
03:00 +26°C° 0 mm 1 mps 751 mmHg 96%
04:00 +26°C° 0 mm 1 mps 751 mmHg 96%
05:00 +26°C° 0 mm 1 mps 751 mmHg 95%
06:00 +26°C° 0 mm 1 mps 751 mmHg 95%
07:00 +28°C° 0 mm 2 mps 752 mmHg 83%
08:00 +30°C° 0 mm 2 mps 752 mmHg 72%
09:00 +34°C° 0 mm 3 mps 753 mmHg 60%
10:00 +34°C° 0 mm 3 mps 752 mmHg 56%
11:00 +35°C° 0 mm 3 mps 752 mmHg 52%
12:00 +36°C° 0 mm 3 mps 751 mmHg 49%
13:00 +35°C° 0.1 mm 2 mps 751 mmHg 52%
14:00 +35°C° 0.1 mm 2 mps 751 mmHg 55%
15:00 +34°C° 0.1 mm 2 mps 750 mmHg 58%
16:00 +32°C° 0.3 mm 2 mps 750 mmHg 63%
17:00 +31°C° 0.3 mm 3 mps 751 mmHg 67%
18:00 +29°C° 0.3 mm 3 mps 751 mmHg 72%
19:00 +29°C° 0 mm 3 mps 751 mmHg 76%
20:00 +28°C° 0 mm 3 mps 752 mmHg 80%
21:00 +27°C° 0 mm 2 mps 753 mmHg 84%
22:00 +27°C° 0 mm 2 mps 753 mmHg 86%
23:00 +27°C° 0 mm 1 mps 753 mmHg 88%

Day after tomorrow, 16 June, Wednesday

Time Temperature Precipitation Wind Pressure Humidity
00:00 +26°C° 0 mm 1 mps 752 mmHg 90%
01:00 +26°C° 0.1 mm 1 mps 752 mmHg 91%
02:00 +26°C° 0.1 mm 1 mps 752 mmHg 92%
03:00 +26°C° 0.1 mm 1 mps 752 mmHg 93%
04:00 +26°C° 0.3 mm 1 mps 752 mmHg 94%
05:00 +26°C° 0.3 mm 1 mps 752 mmHg 94%
06:00 +26°C° 0.3 mm 1 mps 752 mmHg 95%
07:00 +27°C° 0 mm 2 mps 753 mmHg 86%
08:00 +29°C° 0 mm 2 mps 753 mmHg 77%
09:00 +31°C° 0 mm 3 mps 753 mmHg 69%
10:00 +33°C° 0 mm 3 mps 753 mmHg 63%
11:00 +34°C° 0 mm 3 mps 752 mmHg 58%
12:00 +35°C° 0 mm 3 mps 752 mmHg 53%
13:00 +35°C° 0.1 mm 3 mps 751 mmHg 54%
14:00 +34°C° 0.1 mm 3 mps 751 mmHg 56%
15:00 +34°C° 0.1 mm 4 mps 751 mmHg 58%
16:00 +33°C° 0.1 mm 4 mps 751 mmHg 62%
17:00 +31°C° 0.1 mm 3 mps 751 mmHg 66%
18:00 +30°C° 0.1 mm 3 mps 751 mmHg 70%
19:00 +29°C° 0.1 mm 3 mps 752 mmHg 74%
20:00 +28°C° 0.1 mm 3 mps 752 mmHg 79%
21:00 +28°C° 0.1 mm 3 mps 753 mmHg 83%
22:00 +27°C° 0.4 mm 2 mps 753 mmHg 87%
23:00 +26°C° 0.4 mm 2 mps 753 mmHg 90%

17 June, Thursday

Time Temperature Precipitation Wind Pressure Humidity
00:00 +26°C° 0.4 mm 1 mps 753 mmHg 93%
01:00 +26°C° 0 mm 1 mps 753 mmHg 94%
02:00 +25°C° 0 mm 1 mps 753 mmHg 95%
03:00 +25°C° 0 mm 1 mps 752 mmHg 96%
04:00 +25°C° 0 mm 1 mps 753 mmHg 96%
05:00 +25°C° 0 mm 1 mps 753 mmHg 96%
06:00 +25°C° 0 mm 1 mps 754 mmHg 96%
07:00 +27°C° 0.2 mm 1 mps 754 mmHg 88%
08:00 +28°C° 0.2 mm 1 mps 755 mmHg 81%
09:00 +30°C° 0.2 mm 2 mps 755 mmHg 74%
10:00 +30°C° 1.6 mm 2 mps 755 mmHg 76%
11:00 +29°C° 1.6 mm 2 mps 754 mmHg 78%
12:00 +29°C° 1.6 mm 2 mps 754 mmHg 81%
13:00 +29°C° 0.9 mm 2 mps 753 mmHg 81%
14:00 +28°C° 0.9 mm 2 mps 753 mmHg 82%
15:00 +28°C° 0.9 mm 2 mps 752 mmHg 82%
16:00 +28°C° 0 mm 2 mps 752 mmHg 85%
17:00 +27°C° 0 mm 2 mps 752 mmHg 88%
18:00 +26°C° 0 mm 2 mps 753 mmHg 90%
19:00 +26°C° 0 mm 2 mps 753 mmHg 92%
20:00 +26°C° 0 mm 2 mps 753 mmHg 93%
21:00 +26°C° 0 mm 2 mps 753 mmHg 94%
22:00 +25°C° 0 mm 1 mps 753 mmHg 95%
23:00 +25°C° 0 mm 1 mps 754 mmHg 96%

18 June, Friday

Time Temperature Precipitation Wind Pressure Humidity
00:00 +25°C° 0 mm 1 mps 754 mmHg 97%
01:00 +25°C° 0.3 mm 1 mps 753 mmHg 97%
02:00 +25°C° 0.3 mm 1 mps 753 mmHg 96%
03:00 +26°C° 0.3 mm 1 mps 753 mmHg 95%
04:00 +25°C° 0.3 mm 1 mps 753 mmHg 96%
05:00 +25°C° 0.3 mm 1 mps 754 mmHg 96%
06:00 +25°C° 0.3 mm 1 mps 754 mmHg 96%
07:00 +27°C° 0 mm 1 mps 754 mmHg 90%
08:00 +28°C° 0 mm 2 mps 754 mmHg 84%
09:00 +29°C° 0 mm 2 mps 755 mmHg 78%
10:00 +30°C° 0.1 mm 2 mps 754 mmHg 72%
11:00 +31°C° 0.1 mm 2 mps 754 mmHg 66%
12:00 +32°C° 0.1 mm 2 mps 753 mmHg 60%
13:00 +31°C° 1.1 mm 2 mps 753 mmHg 67%
14:00 +30°C° 1.1 mm 2 mps 752 mmHg 73%
15:00 +29°C° 1.1 mm 2 mps 752 mmHg 80%
16:00 +28°C° 0.8 mm 2 mps 752 mmHg 83%
17:00 +28°C° 0.8 mm 2 mps 752 mmHg 86%
18:00 +27°C° 0.8 mm 2 mps 753 mmHg 90%
19:00 +26°C° 0 mm 2 mps 753 mmHg 91%
20:00 +26°C° 0 mm 2 mps 754 mmHg 92%
21:00 +26°C° 0 mm 2 mps 754 mmHg 94%
22:00 +26°C° 0 mm 2 mps 754 mmHg 95%
23:00 +26°C° 0 mm 1 mps 754 mmHg 95%

19 June, Saturday

Time Temperature Precipitation Wind Pressure Humidity
00:00 +26°C° 0 mm 1 mps 754 mmHg 96%
01:00 +25°C° 0 mm 1 mps 754 mmHg 96%
02:00 +25°C° 0 mm 1 mps 753 mmHg 97%
03:00 +25°C° 0 mm 1 mps 753 mmHg 97%
04:00 +25°C° 0 mm 1 mps 753 mmHg 97%
05:00 +25°C° 0 mm 1 mps 754 mmHg 96%
06:00 +25°C° 0 mm 1 mps 754 mmHg 96%
07:00 +26°C° 0.1 mm 1 mps 754 mmHg 90%
08:00 +28°C° 0.1 mm 2 mps 755 mmHg 85%
09:00 +29°C° 0.1 mm 2 mps 755 mmHg 79%
10:00 +30°C° 0.1 mm 2 mps 754 mmHg 74%
11:00 +31°C° 0.1 mm 2 mps 753 mmHg 70%
12:00 +32°C° 0.1 mm 2 mps 753 mmHg 66%
13:00 +31°C° 0.3 mm 2 mps 752 mmHg 66%
14:00 +31°C° 0.3 mm 3 mps 752 mmHg 67%
15:00 +31°C° 0.3 mm 3 mps 752 mmHg 67%
16:00 +30°C° 2.8 mm 3 mps 752 mmHg 75%
17:00 +28°C° 2.8 mm 3 mps 752 mmHg 83%
18:00 +26°C° 2.8 mm 3 mps 753 mmHg 91%
19:00 +26°C° 0.5 mm 2 mps 753 mmHg 93%
20:00 +26°C° 0.5 mm 2 mps 754 mmHg 94%
21:00 +26°C° 0.5 mm 1 mps 754 mmHg 96%
22:00 +26°C° 0 mm 1 mps 754 mmHg 96%
23:00 +26°C° 0 mm 1 mps 754 mmHg 96%
Show more